TimeCST,TemperatureF,Dew PointF,Humidity,Sea Level PressureIn,VisibilityMPH,Wind Direction,Wind SpeedMPH,Gust SpeedMPH,PrecipitationIn,Events,Conditions,WindDirDegrees,DateUTC
12:54 AM,8.1,1.9,76,30.66,10.0,NNW,6.9,-,N/A,,Clear,330,2013-12-07 06:54:00
1:54 AM,8.1,1.0,73,30.67,10.0,NNW,5.8,-,N/A,,Clear,330,2013-12-07 07:54:00
2:54 AM,7.0,1.0,77,30.68,10.0,NNW,5.8,-,N/A,,Clear,340,2013-12-07 08:54:00
3:54 AM,7.0,1.0,77,30.69,10.0,NNW,5.8,-,N/A,,Clear,340,2013-12-07 09:54:00
4:54 AM,6.1,-0.0,76,30.71,10.0,NNW,5.8,-,N/A,,Clear,340,2013-12-07 10:54:00
5:54 AM,5.0,-0.0,80,30.72,10.0,NNW,6.9,-,N/A,,Clear,340,2013-12-07 11:54:00
6:54 AM,3.9,-0.9,80,30.74,10.0,NNW,5.8,-,N/A,,Clear,340,2013-12-07 12:54:00
7:54 AM,6.1,-0.0,76,30.75,10.0,NNW,8.1,-,N/A,,Clear,330,2013-12-07 13:54:00
8:54 AM,8.1,1.0,73,30.76,10.0,North,11.5,-,N/A,,Clear,360,2013-12-07 14:54:00
9:54 AM,10.9,1.9,67,30.77,10.0,North,10.4,-,N/A,,Clear,350,2013-12-07 15:54:00
10:54 AM,15.1,1.0,54,30.76,10.0,North,6.9,-,N/A,,Clear,350,2013-12-07 16:54:00
11:54 AM,17.1,-0.0,47,30.72,10.0,North,10.4,-,N/A,,Clear,10,2013-12-07 17:54:00
12:54 PM,19.9,-0.0,42,30.70,10.0,NNE,9.2,-,N/A,,Clear,20,2013-12-07 18:54:00
1:54 PM,21.0,-0.9,38,30.67,10.0,NNE,9.2,-,N/A,,Clear,30,2013-12-07 19:54:00
2:54 PM,19.9,-0.9,40,30.65,10.0,NNE,9.2,-,N/A,,Clear,20,2013-12-07 20:54:00
3:54 PM,19.0,-0.9,42,30.65,10.0,NNE,8.1,-,N/A,,Clear,20,2013-12-07 21:54:00
4:54 PM,16.0,-0.0,49,30.63,10.0,NE,5.8,-,N/A,,Clear,50,2013-12-07 22:54:00
5:54 PM,14.0,-0.0,54,30.61,10.0,ENE,8.1,-,N/A,,Clear,60,2013-12-07 23:54:00
6:54 PM,15.1,1.0,54,30.60,10.0,ENE,6.9,-,N/A,,Clear,70,2013-12-08 00:54:00
7:54 PM,14.0,1.0,56,30.57,10.0,ENE,8.1,-,N/A,,Clear,70,2013-12-08 01:54:00
8:54 PM,12.9,1.9,62,30.59,10.0,NE,3.5,-,N/A,,Clear,50,2013-12-08 02:54:00
9:54 PM,10.9,1.9,67,30.59,10.0,NNE,6.9,-,N/A,,Clear,30,2013-12-08 03:54:00
10:54 PM,15.1,3.9,61,30.56,10.0,NE,6.9,-,N/A,,Scattered Clouds,50,2013-12-08 04:54:00
11:54 PM,16.0,3.9,59,30.51,10.0,ENE,9.2,-,N/A,,Overcast,60,2013-12-08 05:54:00